PUA011 SUMU-SUAA

Flight info

Callsign PUA011
Flight time 0h 9m
Altitude 3500
Route ASI
Aircraft DA62/L-SDFGRY/C

Departure

Time 2026-05-04 03:53
Airport Carrasco General Cesáreo L. Berisso International Airport (SUMU)

Arrival

Time 2026-05-04 04:02
Airport Ángel S. Adami International Airport (SUAA)
Time Latitude Longitude Altitude Speed Heading
2026-05-04 03:50 -34.84011 -56.02973 66 ft 0 kts 271°
2026-05-04 03:51 -34.84008 -56.03079 65 ft 0 kts 359°
2026-05-04 03:52 -34.83935 -56.03080 66 ft 38 kts 358°
2026-05-04 03:52 -34.83453 -56.03084 75 ft 95 kts
2026-05-04 03:53 -34.82689 -56.03119 258 ft 118 kts 354°
2026-05-04 03:53 -34.81926 -56.03461 656 ft 125 kts 317°
2026-05-04 03:53 -34.81688 -56.04503 968 ft 140 kts 264°
2026-05-04 03:53 -34.82286 -56.05497 1229 ft 159 kts 229°
2026-05-04 03:54 -34.82695 -56.06220 1233 ft 157 kts 262°
2026-05-04 03:54 -34.82601 -56.07488 1246 ft 152 kts 294°
2026-05-04 03:54 -34.82194 -56.09167 1284 ft 160 kts 290°
2026-05-04 03:54 -34.81940 -56.10493 1314 ft 162 kts 289°
2026-05-04 03:55 -34.81689 -56.11833 1324 ft 163 kts 289°
2026-05-04 03:55 -34.81437 -56.13180 1342 ft 164 kts 289°
2026-05-04 03:55 -34.81187 -56.14512 1364 ft 151 kts 289°
2026-05-04 03:55 -34.81060 -56.15260 1197 ft 125 kts 290°
2026-05-04 03:56 -34.80856 -56.16312 732 ft 129 kts 290°
2026-05-04 03:56 -34.80661 -56.17307 592 ft 111 kts 288°
2026-05-04 03:56 -34.80510 -56.18133 578 ft 90 kts 290°
2026-05-04 03:56 -34.80376 -56.18821 563 ft 77 kts 290°
2026-05-04 03:57 -34.80258 -56.19448 534 ft 75 kts 290°
2026-05-04 03:57 -34.80141 -56.20056 527 ft 72 kts 289°
2026-05-04 03:57 -34.80028 -56.20644 524 ft 70 kts 289°
2026-05-04 03:57 -34.79922 -56.21206 520 ft 66 kts 288°
2026-05-04 03:58 -34.79709 -56.22324 522 ft 71 kts 289°
2026-05-04 03:58 -34.79597 -56.22914 523 ft 71 kts 290°
2026-05-04 03:58 -34.79484 -56.23496 525 ft 71 kts 291°
2026-05-04 03:59 -34.79376 -56.24081 524 ft 71 kts 291°
2026-05-04 03:59 -34.79261 -56.24646 515 ft 65 kts 297°
2026-05-04 03:59 -34.79403 -56.25135 479 ft 79 kts 210°
2026-05-04 03:59 -34.79885 -56.25430 576 ft 86 kts 206°
2026-05-04 04:00 -34.80485 -56.25745 783 ft 100 kts 216°
2026-05-04 04:00 -34.80811 -56.26491 800 ft 116 kts 274°
2026-05-04 04:00 -34.80792 -56.27545 736 ft 135 kts 297°
2026-05-04 04:00 -34.80079 -56.28266 638 ft 143 kts 347°
2026-05-04 04:01 -34.79057 -56.28204 540 ft 151 kts
2026-05-04 04:01 -34.78022 -56.28002 539 ft 151 kts 10°
2026-05-04 04:01 -34.77062 -56.27649 773 ft 132 kts 34°
2026-05-04 04:01 -34.77030 -56.26698 1139 ft 147 kts 135°
2026-05-04 04:02 -34.78074 -56.26422 465 ft 149 kts 181°
2026-05-04 04:02 -34.78976 -56.26468 189 ft 114 kts 169°
2026-05-04 04:02 -34.79538 -56.26334 169 ft 36 kts 205°